Location: Apollinopolis Magna
(24.9792°N, 32.8772°E)
Time: 11:16:27
(UTC+00:00)

SJ-11-01 - Pass Details

Date: 02 March 2021
Orbit: 685 x 700 km, 98.0° (Epoch: 16 April)

Event Time Altitude Azimuth Distance (km) Brightness Sun altitude
Rises 16:30:59 0° 157° (SSE) 3,035 7.4 -9.8°
Reaches altitude 10° 16:33:15 10° 153° (SSE) 2,123 6.6 -10.3°
Maximum altitude 16:37:47 55° 76° (ENE) 827 4.3 -11.3°
Drops below altitude 10° 16:42:21 10° 359° (N) 2,139 6.8 -12.4°
Sets 16:44:38 0° 355° (N) 3,060 7.7 -12.9°
